Preview of NWS' New Version of Forecast
This preview is not operational and should not be used for support decisions.

Regional Weather Roundup (RWR)

Issued by National Weather Service (NWS)

                            
000
ASUS44 KMEG 220600
RWRTN 
TENNESSEE HOURLY STATE WEATHER ROUNDUP
NATIONAL WEATHER SERVICE MEMPHIS TN
100 AM CDT MON JUL 22 2019

TNZ002-004-019-021-049-052-054-088>092-220700-
WEST TENNESSEE
  
CITY           SKY/WX    TMP DP  RH WIND       PRES   REMARKS
MEMPHIS INTL   FAIR      79  77  94 S3        29.94S                  
NWS MEMPHIS      N/A     78 N/A N/A MISG        N/A                   
JACKSON        FAIR      76  75  97 S5        29.95F                  
DYERSBURG      FAIR      76  75  97 S5        29.94F                  
HUNTINGDON     PTCLDY    77  75  94 S3        29.93F                  
SELMER         CLOUDY    75  75 100 S3        29.97R                  
$$

TNZ008-025-027-028-033-062-065-066-220700-
NORTH MIDDLE TENNESSEE
  
CITY           SKY/WX    TMP DP  RH WIND       PRES   REMARKS
NASHVILLE      FAIR      80  74  81 SW5       29.97F                  
CLARKSVILLE    FAIR      80  76  87 W6        29.94F                  
SMYRNA         CLOUDY    77  74  90 S3        29.98F                  
CROSSVILLE     FAIR      72  69  90 VRB5      30.05F                  
$$

TNZ061-075-076-078-094-096-097-220700-
SOUTH MIDDLE TENNESSEE
  
CITY           SKY/WX    TMP DP  RH WIND       PRES   REMARKS
$$

TNZ017-018-042-046-047-220700-
NORTHEAST TENNESSEE
  
CITY           SKY/WX    TMP DP  RH WIND       PRES   REMARKS
TRI CITIES     TSTM      75  71  87 SW5       30.03F                  
$$

TNZ012-013-036-069-073-074-220700-
CENTRAL EAST TENNESSEE
  
CITY           SKY/WX    TMP DP  RH WIND       PRES   REMARKS
KNOXVILLE      MOCLDY    78  69  73 S9        29.98F                  
OAK RIDGE      CLOUDY    79  72  79 W3        30.01F                  
$$

TNZ083-085-099-220700-
SOUTHEAST TENNESSEE
  
CITY           SKY/WX    TMP DP  RH WIND       PRES   REMARKS
CHATTANOOGA    CLOUDY    80  72  76 S3        30.00F                  
$$

SKY/WX REPORTED AS FAIR MEANS FEW OR NO CLOUDS BELOW
12 THOUSAND FEET.